Starlink 32658

operational
NORAD ID: 62999 Int'l Des: 2025-031 Owner: SPXS Country: US Constellation: starlink
LEOCIRCULAR

About Starlink 32658

Description loading...

Live Position

Loading 3D Globe...

Upcoming Passes

Altitude History

Altitude vs Time

uPlot chart will show altitude changes over time

Two-Line Element Set

1 62999U 25031U 25304.85730279 .00026866 00000-0 98137-3 0 9990
2 62999 42.9970 150.7612 0000956 132.4539 227.6394 15.27609139 41390
Epoch: Oct 31, 2025 • Age: 18 hours

Current Status

Altitude 483.4 km
Velocity 7.63 km/s
Sub-Earth Point 33.57°N, 24.59°E
Launch Date Feb 11, 2025
Age 0.7 years
Type internet

Technical Details

Classification Payload
Mass 730.00 kg
Dry Mass 700.00 kg
Total Mass 730.00 kg
Length 0.30 m
Diameter 4.10 m
Span 29.00 m
Shape Box + pan
Manufacturer SPXS
Bus Type Starlink V2M
Phase Status In Orbit
Owner/State SPXS/US

Large Constellations

Loading constellations...